Home   Weather   Parma   Past weeks

Flag for Italy Past Weather in Parma, Italy — Yesterday and Last 2 Weeks

Now
77 °F

Partly sunny.


Feels Like: 78 °F
Forecast: 60 / 76 °F
Wind: 5 mph from Northeast

Location: Parma

Current Time: Oct 1, 2016 at 4:00:17 PM

Latest Report: Oct 1, 2016 at 2:50 PM


Visibility: N/A

Pressure: 29.98 "Hg

Humidity: 44%

Dew Point: 54 °F

Location of ParmaLocation

Past Weather in Parma — Graph

°F

Parma Temperature Yesterday

Maximum temperature yesterday: 81 °F (at 2:50 PM)
Minimum temperature yesterday: 57 °F (at 7:50 AM)
Average temperature yesterday: 71 °F

High & Low Weather Summary for the Past Weeks

 TemperatureHumidityPressure
High81 °F (Sep 30, 2:50 PM)100% (Sep 16, 10:50 PM)30.42 "Hg (Sep 16, 10:50 PM)
Low54 °F (Sep 18, 7:00 AM)34% (Sep 27, 2:50 PM)29.80 "Hg (Sep 18, 5:50 PM)
Average68 °F63%30.09 "Hg
* Reported Sep 16 2:50 PM — Oct 1 2:50 PM, Parma, Weather by CustomWeather, © 2016

Note: Actual official high and low records may vary slightly from our data, if they occured in-between our weather recording intervals... More about our weather records

Advertising

Parma Weather History for the Previous 24 Hours

Scroll right to see more
 ConditionsComfort  
Time TempWeatherWind HumidityBarometerVisibility
2:50 PM
Sat, Oct 1
77 °FPartly sunny.5 mph44%29.98 "HgN/A
1:50 PM75 °FScattered clouds.3 mph44%30.01 "HgN/A
12:50 PM75 °FPassing clouds.6 mph41%30.01 "HgN/A
11:50 AM75 °FScattered clouds.5 mph44%30.04 "HgN/A
10:50 AM73 °FScattered clouds.3 mph50%30.04 "HgN/A
9:50 AM68 °FScattered clouds.3 mph60%30.04 "HgN/A
8:50 AM64 °FScattered clouds.5 mph68%30.04 "HgN/A
7:50 AM57 °FSunny.2 mph82%30.04 "Hg10 mi
7:00 AM55 °FClear.1 mph82%30.04 "Hg10 mi
11:50 PM
Fri, Sep 30
66 °FClear.1 mph60%30.09 "Hg10 mi
10:50 PM66 °FPassing clouds.10 mph64%30.09 "HgN/A
9:50 PM66 °FPassing clouds.9 mph64%30.09 "HgN/A
8:50 PM68 °FPassing clouds.10 mph56%30.07 "HgN/A
7:50 PM72 °FPassing clouds.12 mph50%30.07 "HgN/A
6:50 PM73 °FPassing clouds.10 mph44%30.07 "HgN/A
5:50 PM77 °FPassing clouds.17 mph39%30.07 "HgN/A
4:50 PM79 °FPassing clouds.16 mph37%30.07 "HgN/A
Weather by CustomWeather, © 2016

See weather overviewHow to use our weather pages